| time (UTC) | temp F | wind direction | speed MPH | gust MPH | rain 1hr in | rain 24hr in | rain mn in | humidity % | barometer mb |
| 20260506134020 | 47 | 180 | 0.0 | 0.0 | 0.00 | 0.00 | 0.00 | 96 | 1044.3 |
| 20260506133022 | 47 | 180 | 0.0 | 0.0 | 0.00 | 0.00 | 0.00 | 97 | 1044.2 |
| 20260506130120 | 47 | 180 | 0.0 | 0.0 | 0.00 | 0.00 | 0.00 | 98 | 1043.9 |
| 20260506125019 | 47 | 180 | 0.0 | 0.0 | 0.00 | 0.00 | 0.00 | 97 | 1043.8 |
| 20260506123920 | 47 | 180 | 0.0 | 0.0 | 0.00 | 0.00 | 0.00 | 97 | 1043.8 |
| 20260506122919 | 47 | 180 | 0.0 | 0.0 | 0.00 | 0.00 | 0.00 | 97 | 1043.8 |
| 20260506122018 | 47 | 67 | 0.0 | 0.0 | 0.00 | 0.00 | 0.00 | 97 | 1043.8 |
| 20260506121021 | 46 | 67 | 0.0 | 0.0 | 0.00 | 0.00 | 0.00 | 96 | 1043.9 |
| 20260506115021 | 47 | 67 | 0.0 | 0.0 | 0.00 | 0.00 | 0.00 | 97 | 1044.0 |
| 20260506113020 | 47 | 67 | 0.0 | 0.0 | 0.00 | 0.00 | 0.00 | 97 | 1043.9 |
| 20260506111119 | 47 | 67 | 0.0 | 0.0 | 0.00 | 0.00 | 0.00 | 97 | 1044.0 |
| 20260506111021 | 47 | 67 | 0.0 | 0.0 | 0.00 | 0.00 | 0.00 | 97 | 1044.0 |
| 20260506110020 | 47 | 67 | 0.0 | 0.0 | 0.00 | 0.00 | 0.00 | 97 | 1043.9 |
| 20260506105020 | 47 | 67 | 0.0 | 0.0 | 0.00 | 0.00 | 0.00 | 96 | 1043.9 |
| 20260506104021 | 48 | 67 | 0.0 | 0.0 | 0.00 | 0.00 | 0.00 | 96 | 1043.8 |
| 20260506103020 | 48 | 67 | 0.0 | 0.0 | 0.00 | 0.00 | 0.00 | 96 | 1043.9 |
| 20260506102021 | 48 | 67 | 0.0 | 0.0 | 0.00 | 0.00 | 0.00 | 95 | 1043.8 |
| 20260506101020 | 48 | 67 | 0.0 | 0.0 | 0.00 | 0.00 | 0.00 | 95 | 1043.9 |
| 20260506100921 | 48 | 67 | 0.0 | 0.0 | 0.00 | 0.00 | 0.00 | 96 | 1043.9 |
| 20260506095919 | 48 | 67 | 0.0 | 0.0 | 0.00 | 0.00 | 0.00 | 96 | 1043.8 |
| 20260506094820 | 48 | 67 | 0.0 | 0.0 | 0.00 | 0.00 | 0.00 | 95 | 1043.8 |
| 20260506093819 | 49 | 67 | 0.0 | 0.0 | 0.00 | 0.00 | 0.00 | 95 | 1044.0 |
| 20260506093723 | 49 | 67 | 0.0 | 0.0 | 0.00 | 0.00 | 0.00 | 94 | 1043.9 |
| 20260506092820 | 49 | 67 | 0.0 | 0.0 | 0.00 | 0.00 | 0.00 | 95 | 1043.8 |
| 20260506092721 | 49 | 67 | 0.0 | 0.0 | 0.00 | 0.00 | 0.00 | 95 | 1043.8 |
| 20260506091719 | 49 | 67 | 0.0 | 0.0 | 0.00 | 0.00 | 0.00 | 95 | 1044.0 |
| 20260506085622 | 50 | 67 | 0.0 | 0.0 | 0.00 | 0.00 | 0.00 | 95 | 1044.2 |
| 20260506084619 | 50 | 67 | 0.0 | 0.0 | 0.00 | 0.00 | 0.00 | 95 | 1044.2 |
| 20260506084519 | 50 | 67 | 0.0 | 0.0 | 0.00 | 0.00 | 0.00 | 95 | 1044.2 |
| 20260506083521 | 50 | 67 | 0.0 | 0.0 | 0.00 | 0.00 | 0.00 | 94 | 1044.1 |
| 20260506082519 | 50 | 67 | 0.0 | 0.0 | 0.00 | 0.00 | 0.00 | 92 | 1044.3 |
| 20260506082422 | 50 | 67 | 0.0 | 0.0 | 0.00 | 0.00 | 0.00 | 93 | 1044.3 |
| 20260506081419 | 51 | 67 | 0.0 | 0.0 | 0.00 | 0.00 | 0.00 | 94 | 1044.3 |
| 20260506080518 | 51 | 67 | 0.0 | 0.0 | 0.00 | 0.00 | 0.00 | 94 | 1044.4 |
| 20260506073319 | 52 | 67 | 0.0 | 0.0 | 0.00 | 0.00 | 0.00 | 92 | 1044.2 |
| 20260506072321 | 52 | 67 | 0.0 | 0.0 | 0.00 | 0.00 | 0.00 | 91 | 1044.2 |
| 20260506071419 | 53 | 67 | 0.0 | 0.0 | 0.00 | 0.00 | 0.00 | 93 | 1044.2 |
| 20260506070518 | 53 | 67 | 0.0 | 0.0 | 0.00 | 0.00 | 0.00 | 92 | 1044.1 |
| 20260506061514 | 53 | 67 | 0.0 | 0.0 | 0.00 | 0.00 | 0.00 | 91 | 1043.7 |
| 20260506061415 | 53 | 67 | 0.0 | 0.0 | 0.00 | 0.00 | 0.00 | 91 | 1043.7 |
| 20260506060513 | 53 | 270 | 0.0 | 0.0 | 0.00 | 0.00 | 0.00 | 91 | 1043.6 |
| 20260506051412 | 0 | 0 | 0.0 | 0.0 | 0.00 | 0.00 | 0.00 | 100 | |
| 20260506050413 | 54 | 247 | 0.0 | 0.0 | 0.00 | 0.00 | 0.00 | 87 | 1043.4 |
| 20260506044315 | 54 | 292 | 0.0 | 0.0 | 0.00 | 0.00 | 0.00 | 85 | 1043.1 |
| 20260506043413 | 0 | 0 | 0.0 | 0.0 | 0.00 | 0.00 | 0.00 | 100 | |
| 20260506043315 | 0 | 0 | 0.0 | 0.0 | 0.00 | 0.00 | 0.00 | 100 | |
| 20260506042313 | 55 | 315 | 1.0 | 1.0 | 0.00 | 0.00 | 0.00 | 84 | 1042.9 |
| 20260506041315 | 55 | 22 | 0.0 | 0.0 | 0.00 | 0.00 | 0.00 | 83 | 1042.9 |
| 20260506040412 | 55 | 22 | 0.0 | 0.0 | 0.00 | 0.00 | 0.00 | 84 | 1042.8 |
| 20260506040314 | 55 | 22 | 0.0 | 0.0 | 0.00 | 0.00 | 0.00 | 83 | 1042.8 |
| 20260506035314 | 55 | 45 | 0.0 | 0.0 | 0.00 | 0.00 | 0.00 | 82 | 1042.7 |
| 20260506034314 | 55 | 360 | 0.0 | 0.0 | 0.00 | 0.00 | 0.00 | 81 | 1042.5 |
| 20260506033313 | 0 | 0 | 0.0 | 0.0 | 0.00 | 0.00 | 0.00 | 100 | |
| 20260506032412 | 0 | 0 | 0.0 | 0.0 | 0.00 | 0.00 | 0.00 | 100 | |
| 20260506031415 | 0 | 0 | 0.0 | 0.0 | 0.00 | 0.00 | 0.00 | 100 | |
| 20260506025425 | 58 | 292 | 1.0 | 1.0 | 0.00 | 0.00 | 0.00 | 77 | 1041.7 |
| 20260506023524 | 59 | 327 | 0.0 | 3.0 | 0.00 | 0.00 | 0.00 | 76 | 1041.4 |
| 20260506022523 | 59 | 50 | 0.0 | 2.0 | 0.00 | 0.00 | 0.00 | 73 | 1041.3 |
| 20260506022424 | 59 | 303 | 0.0 | 3.0 | 0.00 | 0.00 | 0.00 | 73 | 1041.4 |
| 20260506021424 | 61 | 270 | 0.0 | 0.0 | 0.00 | 0.00 | 0.00 | 72 | 1041.2 |
| 20260506020424 | 62 | 303 | 1.0 | 4.0 | 0.00 | 0.00 | 0.00 | 69 | 1041.0 |
| 20260506015524 | 63 | 5 | 2.0 | 4.0 | 0.00 | 0.00 | 0.00 | 67 | 1040.9 |
| 20260506014524 | 63 | 324 | 1.0 | 5.0 | 0.00 | 0.00 | 0.00 | 68 | 1040.8 |
| 20260506014424 | 63 | 325 | 1.0 | 3.0 | 0.00 | 0.00 | 0.00 | 67 | 1040.9 |
| 20260506013523 | 63 | 248 | 1.0 | 3.0 | 0.00 | 0.00 | 0.00 | 67 | 1040.8 |
| 20260506010624 | 65 | 303 | 0.0 | 2.0 | 0.00 | 0.00 | 0.00 | 66 | 1040.7 |
| 20260506004725 | 66 | 264 | 2.0 | 6.0 | 0.00 | 0.00 | 0.00 | 64 | 1040.8 |
| 20260506002725 | 67 | 294 | 1.0 | 5.0 | 0.00 | 0.00 | 0.00 | 64 | 1040.6 |
| 20260506001824 | 67 | 275 | 1.0 | 6.0 | 0.00 | 0.00 | 0.00 | 64 | 1040.5 |
| 20260506001725 | 67 | 301 | 2.0 | 7.0 | 0.00 | 0.00 | 0.00 | 63 | 1040.6 |
| 20260506000723 | 67 | 267 | 2.0 | 4.0 | 0.00 | 0.00 | 0.00 | 64 | 1040.5 |
| 20260505235723 | 67 | 295 | 2.0 | 7.0 | 0.00 | 0.00 | 0.00 | 65 | 1040.6 |
| 20260505234723 | 66 | 51 | 0.0 | 1.0 | 0.00 | 0.00 | 0.00 | 66 | 1040.6 |
| 20260505233723 | 67 | 317 | 2.0 | 7.0 | 0.00 | 0.00 | 0.00 | 62 | 1040.7 |
| 20260505231724 | 68 | 254 | 1.0 | 3.0 | 0.00 | 0.00 | 0.00 | 62 | 1040.5 |
| 20260505230724 | 68 | 249 | 3.0 | 6.0 | 0.00 | 0.00 | 0.00 | 61 | 1040.7 |
| 20260505230625 | 68 | 256 | 1.0 | 3.0 | 0.00 | 0.00 | 0.00 | 60 | 1040.7 |
| 20260505225722 | 68 | 249 | 3.0 | 6.0 | 0.00 | 0.00 | 0.00 | 60 | 1040.7 |
| 20260505224725 | 68 | 208 | 2.0 | 6.0 | 0.00 | 0.00 | 0.00 | 62 | 1040.7 |
| 20260505223823 | 68 | 268 | 1.0 | 5.0 | 0.00 | 0.00 | 0.00 | 62 | 1041.1 |
| 20260505222823 | 68 | 224 | 3.0 | 8.0 | 0.00 | 0.00 | 0.00 | 62 | 1041.1 |
| 20260505221825 | 68 | 259 | 2.0 | 4.0 | 0.00 | 0.00 | 0.00 | 62 | 1041.1 |
| 20260505220824 | 67 | 284 | 2.0 | 7.0 | 0.00 | 0.00 | 0.00 | 62 | 1041.1 |
| 20260505215823 | 67 | 284 | 1.0 | 5.0 | 0.00 | 0.00 | 0.00 | 63 | 1041.2 |
| 20260505214824 | 66 | 286 | 1.0 | 7.0 | 0.00 | 0.00 | 0.00 | 63 | 1041.3 |
| 20260505214725 | 66 | 276 | 2.0 | 3.0 | 0.00 | 0.00 | 0.00 | 63 | 1041.4 |
| 20260505213724 | 66 | 270 | 1.0 | 4.0 | 0.00 | 0.00 | 0.00 | 61 | 1041.5 |
| 20260505212725 | 66 | 239 | 1.0 | 7.0 | 0.00 | 0.00 | 0.00 | 62 | 1041.5 |
| 20260505212623 | 66 | 336 | 2.0 | 7.0 | 0.00 | 0.00 | 0.00 | 62 | 1041.5 |
| 20260505211639 | 66 | 136 | 0.0 | 3.0 | 0.00 | 0.00 | 0.00 | 61 | 1041.5 |
| 20260505210624 | 66 | 251 | 2.0 | 8.0 | 0.00 | 0.00 | 0.00 | 60 | 1041.7 |
| 20260505205624 | 66 | 16 | 1.0 | 5.0 | 0.00 | 0.00 | 0.00 | 60 | 1041.6 |
| 20260505203726 | 66 | 321 | 2.0 | 6.0 | 0.00 | 0.00 | 0.00 | 62 | 1041.7 |
| 20260505202824 | 66 | 286 | 2.0 | 6.0 | 0.00 | 0.00 | 0.00 | 62 | 1041.6 |
| 20260505201923 | 66 | 269 | 0.0 | 4.0 | 0.00 | 0.00 | 0.00 | 63 | 1041.7 |
| 20260505200923 | 66 | 331 | 1.0 | 3.0 | 0.00 | 0.00 | 0.00 | 61 | 1041.8 |
| 20260505195924 | 66 | 259 | 2.0 | 4.0 | 0.00 | 0.00 | 0.00 | 62 | 1041.7 |
| 20260505193922 | 67 | 287 | 1.0 | 6.0 | 0.00 | 0.00 | 0.00 | 60 | 1041.7 |
| 20260505192926 | 67 | 264 | 1.0 | 3.0 | 0.00 | 0.00 | 0.00 | 60 | 1041.7 |
| 20260505191924 | 67 | 262 | 1.0 | 4.0 | 0.00 | 0.00 | 0.00 | 57 | 1041.9 |
| 20260505185927 | 69 | 255 | 2.0 | 5.0 | 0.00 | 0.00 | 0.00 | 58 | 1041.7 |
| 20260505184924 | 69 | 179 | 1.0 | 3.0 | 0.00 | 0.00 | 0.00 | 59 | 1041.6 |
| 20260505184024 | 69 | 256 | 0.0 | 3.0 | 0.00 | 0.00 | 0.00 | 60 | 1041.6 |
| 20260505182922 | 68 | 261 | 1.0 | 5.0 | 0.00 | 0.00 | 0.00 | 59 | 1041.6 |
| 20260505181925 | 68 | 248 | 2.0 | 7.0 | 0.00 | 0.00 | 0.00 | 58 | 1041.7 |
| 20260505181024 | 68 | 338 | 0.0 | 2.0 | 0.00 | 0.00 | 0.00 | 59 | 1041.5 |
| 20260505180023 | 68 | 32 | 0.0 | 3.0 | 0.00 | 0.00 | 0.00 | 60 | 1041.6 |
| 20260505175023 | 69 | 274 | 1.0 | 3.0 | 0.00 | 0.00 | 0.00 | 60 | 1041.4 |
| 20260505174022 | 68 | 321 | 0.0 | 3.0 | 0.00 | 0.00 | 0.00 | 59 | 1041.4 |
| 20260505173023 | 68 | 248 | 0.0 | 2.0 | 0.00 | 0.00 | 0.00 | 62 | 1041.2 |
| 20260505172923 | 67 | 141 | 0.0 | 1.0 | 0.00 | 0.00 | 0.00 | 62 | 1041.2 |
| 20260505172824 | 67 | 357 | 0.0 | 3.0 | 0.00 | 0.00 | 0.00 | 62 | 1041.1 |
| 20260505171826 | 67 | 296 | 1.0 | 3.0 | 0.00 | 0.00 | 0.00 | 61 | 1041.3 |
| 20260505165925 | 64 | 314 | 1.0 | 3.0 | 0.00 | 0.00 | 0.00 | 64 | 1041.5 |
| 20260505164926 | 64 | 331 | 1.0 | 4.0 | 0.00 | 0.00 | 0.00 | 64 | 1041.5 |
| 20260505164824 | 64 | 302 | 2.0 | 4.0 | 0.00 | 0.00 | 0.00 | 64 | 1041.4 |
| 20260505163825 | 65 | 325 | 0.0 | 1.0 | 0.00 | 0.00 | 0.00 | 64 | 1041.4 |
| 20260505163725 | 65 | 333 | 1.0 | 2.0 | 0.00 | 0.00 | 0.00 | 65 | 1041.4 |
| 20260505162725 | 65 | 48 | 0.0 | 1.0 | 0.00 | 0.00 | 0.00 | 65 | 1041.2 |
| 20260505161824 | 64 | 273 | 0.0 | 3.0 | 0.00 | 0.00 | 0.00 | 68 | 1041.3 |
| 20260505160823 | 63 | 33 | 0.0 | 2.0 | 0.00 | 0.00 | 0.00 | 70 | 1041.4 |
| 20260505160724 | 63 | 273 | 0.0 | 2.0 | 0.00 | 0.00 | 0.00 | 70 | 1041.4 |
| 20260505152824 | 60 | 230 | 0.0 | 0.0 | 0.00 | 0.00 | 0.00 | 79 | 1041.1 |